Longview, TX

2:14 AM CDT on June 25, 2017 (GMT -0500)
Gregg County

Weather History for KGGG - June, 2014

Change the Weather History Date:

Wednesday, June 11, 2014

  Actual Average Record
Temperature  
Mean Temperature 76 °F 79 °F  
Max Temperature 89 °F 89 °F 104 °F (1911)
Min Temperature 63 °F 69 °F 55 °F (1955)
Degree Days  
Heating Degree Days 0 0  
Month to date heating degree days 0 0  
Since 1 June heating degree days 0 0  
Since 1 July heating degree days 2611 2258  
Cooling Degree Days 11 14  
Month to date cooling degree days 158 141  
Year to date cooling degree days 512 520  
Since 1 June cooling degree days 158 141  
Growing Degree Days 26 (Base 50)    
Moisture  
Dew Point 64 °F    
Average Humidity 68    
Maximum Humidity 93    
Minimum Humidity 43    
Precipitation  
Precipitation 0.00 in 0.17 in 2.75 in (1932)
Month to date precipitation 1.12 1.76  
Year to date precipitation 18.89 21.49  
Snow  
Snow 0.00 in - - ()
Month to date snowfall 0.0  
Since 1 June snowfall 0.0  
Since 1 July snowfall 0.3  
Snow Depth 0.00 in    
Sea Level Pressure  
Sea Level Pressure 29.84 in    
Wind  
Wind Speed 2 mph (SW)    
Max Wind Speed 13 mph    
Max Gust Speed 18 mph    
Visibility 10 miles    
Events      
T = Trace of Precipitation, MM = Missing Value Source: NWS Daily Summary

Daily Weather History Graph

Daily Weather History Graph

Search for Another Location

Airport or City:

Trip Planner

Search our weather history database for the weather conditions in past years. The results will help you decide how hot, cold, wet, or windy it might be!

Date:

Astronomy

Jun. 11, 2014 Rise Set
Actual Time 6:11 AM CDT 8:25 PM CDT
Civil Twilight 5:42 AM CDT 8:54 PM CDT
Nautical Twilight 5:08 AM CDT 9:28 PM CDT
Astronomical Twilight 4:30 AM CDT 10:06 PM CDT
Moon 7:01 PM CDT (6/11) 4:55 AM CDT (6/11)
Length of Visible Light 15h 11m
Length of Day
14h 14m
Waxing Gibbous, 97% of the Moon is Illuminated
Jun 11
Waxing Gibbous
Jun 12
Full
Jun 19
Last Quarter
Jun 27
New
Jul 5
First Quarter

Hourly Weather History & Observations

Time (CDT) Temp. Heat Index Dew Point Humidity Pressure Visibility Wind Dir Wind Speed Gust Speed Precip Events Conditions
12:53 AM 69.1 °F - 64.0 °F 84% 29.83 in 10.0 mi Calm Calm - N/A   Clear
2:53 AM 66.0 °F - 62.1 °F 87% 29.82 in 10.0 mi Calm Calm - N/A   Clear
3:53 AM 64.9 °F - 62.1 °F 90% 29.83 in 10.0 mi Calm Calm - 0.00 in   Clear
4:53 AM 64.9 °F - 61.0 °F 87% 29.83 in 10.0 mi Calm Calm - N/A   Clear
5:53 AM 63.0 °F - 60.1 °F 90% 29.84 in 10.0 mi Calm Calm - N/A   Clear
6:53 AM 64.0 °F - 61.0 °F 90% 29.86 in 8.0 mi Calm Calm - N/A   Clear
7:53 AM 68.0 °F - 64.0 °F 87% 29.88 in 10.0 mi Calm Calm - N/A   Clear
8:53 AM 73.9 °F - 64.0 °F 71% 29.89 in 10.0 mi Calm Calm - N/A   Clear
9:53 AM 77.0 °F - 64.0 °F 64% 29.89 in 10.0 mi Calm Calm - N/A   Clear
10:53 AM 81.0 °F 82.5 °F 64.0 °F 56% 29.89 in 10.0 mi Calm Calm - N/A   Clear
11:53 AM 82.9 °F 83.7 °F 62.1 °F 49% 29.89 in 10.0 mi West 5.8 mph - N/A   Partly Cloudy
12:53 PM 84.0 °F 84.4 °F 61.0 °F 46% 29.88 in 10.0 mi West 5.8 mph - N/A   Clear
1:53 PM 86.0 °F 87.3 °F 64.0 °F 48% 29.86 in 10.0 mi WSW 10.4 mph - N/A   Clear
2:53 PM 87.1 °F 87.8 °F 63.0 °F 44% 29.85 in 10.0 mi SW 6.9 mph - N/A   Clear
3:53 PM 87.1 °F 88.3 °F 64.0 °F 46% 29.84 in 10.0 mi Variable 6.9 mph - N/A   Clear
4:53 PM 88.0 °F 88.4 °F 62.1 °F 42% 29.82 in 10.0 mi Calm Calm - N/A   Clear
5:53 PM 87.1 °F 87.5 °F 62.1 °F 43% 29.81 in 10.0 mi Variable 3.5 mph - N/A   Clear
6:53 PM 86.0 °F 87.3 °F 64.0 °F 48% 29.80 in 10.0 mi SSW 5.8 mph - N/A   Clear
7:53 PM 84.0 °F 85.8 °F 64.9 °F 53% 29.79 in 10.0 mi SSW 4.6 mph - N/A   Clear
8:53 PM 75.9 °F - 69.1 °F 79% 29.78 in 10.0 mi SE 4.6 mph - N/A   Clear
9:53 PM 75.0 °F - 68.0 °F 79% 29.81 in 10.0 mi Calm Calm - N/A   Clear
10:53 PM 73.9 °F - 68.0 °F 82% 29.84 in 10.0 mi South 3.5 mph - N/A   Clear
11:53 PM 72.0 °F - 68.0 °F 87% 29.84 in 10.0 mi Calm Calm - N/A   Clear